| time (UTC) | temp C | wind direction | speed KPH | gust KPH | rain 1hr cm | rain 24hr cm | rain mn cm | humidity % | barometer mb |
| 20260503021526 | 3 | 0.0 | 0.0 | 0.00 | 0.00 | 0.00 | 66 | 1023.6 | |
| 20260503020526 | 3 | 0.0 | 0.0 | 0.00 | 0.00 | 0.00 | 66 | 1023.6 | |
| 20260503015524 | 4 | 0.0 | 0.0 | 0.00 | 0.00 | 0.00 | 65 | 1023.6 | |
| 20260503014524 | 5 | 0.0 | 0.0 | 0.00 | 0.00 | 0.00 | 62 | 1023.6 | |
| 20260503013544 | 5 | 0.0 | 0.0 | 0.00 | 0.00 | 0.00 | 60 | 1023.6 | |
| 20260503012524 | 5 | 0.0 | 0.0 | 0.00 | 0.00 | 0.00 | 59 | 1023.6 | |
| 20260503011524 | 5 | 0.0 | 0.0 | 0.00 | 0.00 | 0.00 | 59 | 1023.7 | |
| 20260503010524 | 6 | 0.0 | 0.0 | 0.00 | 0.00 | 0.00 | 59 | 1023.6 | |
| 20260503005524 | 5 | 0.0 | 0.0 | 0.00 | 0.00 | 0.00 | 60 | 1023.7 | |
| 20260503004524 | 5 | 0.0 | 0.0 | 0.00 | 0.00 | 0.00 | 61 | 1023.6 | |
| 20260503003525 | 5 | 0.0 | 0.0 | 0.00 | 0.00 | 0.00 | 60 | 1023.6 | |
| 20260503002524 | 6 | 0.0 | 0.0 | 0.00 | 0.00 | 0.00 | 59 | 1023.6 | |
| 20260503001524 | 6 | 0.0 | 0.0 | 0.00 | 0.00 | 0.00 | 58 | 1023.7 | |
| 20260503000525 | 6 | 0.0 | 0.0 | 0.00 | 0.00 | 0.00 | 59 | 1023.7 | |
| 20260502235524 | 6 | 0.0 | 0.0 | 0.00 | 0.00 | 0.00 | 59 | 1023.7 | |
| 20260502234524 | 5 | 0.0 | 0.0 | 0.00 | 0.00 | 0.00 | 60 | 1023.8 | |
| 20260502233524 | 5 | 0.0 | 0.0 | 0.00 | 0.00 | 0.00 | 60 | 1023.8 | |
| 20260502232525 | 5 | 0.0 | 0.0 | 0.00 | 0.00 | 0.00 | 61 | 1023.8 | |
| 20260502231525 | 6 | 0.0 | 0.0 | 0.00 | 0.00 | 0.00 | 60 | 1023.9 | |
| 20260502230524 | 6 | 0.0 | 0.0 | 0.00 | 0.00 | 0.00 | 60 | 1024.0 | |
| 20260502225524 | 6 | 0.0 | 0.0 | 0.00 | 0.00 | 0.00 | 60 | 1024.0 | |
| 20260502224524 | 6 | 0.0 | 0.0 | 0.00 | 0.00 | 0.00 | 60 | 1024.0 | |
| 20260502223524 | 6 | 0.0 | 0.0 | 0.00 | 0.00 | 0.00 | 59 | 1024.0 | |
| 20260502222524 | 6 | 0.0 | 0.0 | 0.00 | 0.00 | 0.00 | 59 | 1024.1 | |
| 20260502221524 | 6 | 0.0 | 0.0 | 0.00 | 0.00 | 0.00 | 59 | 1024.2 | |
| 20260502220524 | 6 | 0.0 | 0.0 | 0.00 | 0.00 | 0.00 | 57 | 1024.3 | |
| 20260502215524 | 7 | 0.0 | 0.0 | 0.00 | 0.00 | 0.00 | 57 | 1024.4 | |
| 20260502214524 | 7 | 0.0 | 0.0 | 0.00 | 0.00 | 0.00 | 56 | 1024.4 | |
| 20260502213524 | 7 | 0.0 | 0.0 | 0.00 | 0.00 | 0.00 | 55 | 1024.4 | |
| 20260502212524 | 7 | 0.0 | 0.0 | 0.00 | 0.00 | 0.00 | 54 | 1024.4 | |
| 20260502211536 | 8 | 0.0 | 0.0 | 0.00 | 0.00 | 0.00 | 54 | 1024.3 | |
| 20260502210524 | 7 | 130 | 0.0 | 3.2 | 0.00 | 0.00 | 0.00 | 54 | 1024.3 |
| 20260502205544 | 7 | 0.0 | 0.0 | 0.00 | 0.00 | 0.00 | 52 | 1024.3 | |
| 20260502204524 | 8 | 0.0 | 0.0 | 0.00 | 0.00 | 0.00 | 51 | 1024.3 | |
| 20260502203524 | 8 | 0.0 | 0.0 | 0.00 | 0.00 | 0.00 | 49 | 1024.3 | |
| 20260502202543 | 8 | 0.0 | 0.0 | 0.00 | 0.00 | 0.00 | 49 | 1024.3 | |
| 20260502201524 | 9 | 0.0 | 0.0 | 0.00 | 0.00 | 0.00 | 49 | 1024.3 | |
| 20260502200525 | 9 | 0.0 | 0.0 | 0.00 | 0.00 | 0.00 | 48 | 1024.3 | |
| 20260502195524 | 9 | 0.0 | 0.0 | 0.00 | 0.00 | 0.00 | 49 | 1024.2 | |
| 20260502194524 | 9 | 0.0 | 0.0 | 0.00 | 0.00 | 0.00 | 49 | 1024.2 | |
| 20260502193524 | 10 | 0.0 | 0.0 | 0.00 | 0.00 | 0.00 | 48 | 1024.2 | |
| 20260502192524 | 10 | 0.0 | 0.0 | 0.00 | 0.00 | 0.00 | 48 | 1024.0 | |
| 20260502191606 | 10 | 0.0 | 0.0 | 0.00 | 0.00 | 0.00 | 48 | 1024.2 | |
| 20260502190524 | 10 | 0.0 | 0.0 | 0.00 | 0.00 | 0.00 | 48 | 1024.2 | |
| 20260502185524 | 10 | 0.0 | 0.0 | 0.00 | 0.00 | 0.00 | 48 | 1024.1 | |
| 20260502184525 | 10 | 0.0 | 0.0 | 0.00 | 0.00 | 0.00 | 48 | 1024.1 | |
| 20260502183525 | 10 | 0.0 | 0.0 | 0.00 | 0.00 | 0.00 | 49 | 1024.0 | |
| 20260502182524 | 10 | 0.0 | 0.0 | 0.00 | 0.00 | 0.00 | 49 | 1023.9 | |
| 20260502181526 | 10 | 0.0 | 1.6 | 0.00 | 0.00 | 0.00 | 49 | 1023.8 | |
| 20260502180525 | 10 | 0.0 | 0.0 | 0.00 | 0.00 | 0.00 | 49 | 1023.7 | |
| 20260502163524 | 12 | 83 | 1.6 | 3.2 | 0.00 | 0.00 | 0.00 | 42 | 1023.3 |
| 20260502162544 | 12 | 71 | 1.6 | 4.8 | 0.00 | 0.00 | 0.00 | 42 | 1023.3 |
| 20260502161524 | 13 | 0.0 | 0.0 | 0.00 | 0.00 | 0.00 | 41 | 1023.3 | |
| 20260502160545 | 13 | 0.0 | 0.0 | 0.00 | 0.00 | 0.00 | 42 | 1023.3 | |
| 20260502151544 | 13 | 61 | 3.2 | 6.4 | 0.00 | 0.00 | 0.00 | 39 | 1023.3 |
| 20260502150525 | 13 | 40 | 3.2 | 4.8 | 0.00 | 0.00 | 0.00 | 38 | 1023.3 |
| 20260502130604 | 14 | 54 | 1.6 | 3.2 | 0.00 | 0.00 | 0.00 | 39 | 1023.9 |
| 20260502123544 | 13 | 56 | 1.6 | 4.8 | 0.00 | 0.00 | 0.00 | 42 | 1024.3 |
| 20260502122544 | 13 | 93 | 3.2 | 6.4 | 0.00 | 0.00 | 0.00 | 42 | 1024.2 |
| 20260502121524 | 14 | 51 | 3.2 | 6.4 | 0.00 | 0.00 | 0.00 | 39 | 1024.2 |
| 20260502120525 | 15 | 46 | 3.2 | 8.0 | 0.00 | 0.00 | 0.00 | 38 | 1024.2 |
| 20260502115524 | 13 | 77 | 1.6 | 4.8 | 0.00 | 0.00 | 0.00 | 39 | 1024.3 |
| 20260502114524 | 13 | 52 | 1.6 | 8.0 | 0.00 | 0.00 | 0.00 | 40 | 1024.4 |
| 20260502113524 | 13 | 28 | 3.2 | 8.0 | 0.00 | 0.00 | 0.00 | 40 | 1024.5 |
| 20260502112525 | 13 | 29 | 0.0 | 3.2 | 0.00 | 0.00 | 0.00 | 40 | 1024.6 |
| 20260502111525 | 13 | 62 | 1.6 | 11.3 | 0.00 | 0.00 | 0.00 | 41 | 1024.6 |
| 20260502110524 | 13 | 84 | 1.6 | 3.2 | 0.00 | 0.00 | 0.00 | 41 | 1024.6 |
| 20260502105525 | 12 | 48 | 1.6 | 8.0 | 0.00 | 0.00 | 0.00 | 42 | 1024.6 |
| 20260502104525 | 13 | 65 | 3.2 | 9.7 | 0.00 | 0.00 | 0.00 | 42 | 1024.6 |
| 20260502103524 | 13 | 46 | 1.6 | 3.2 | 0.00 | 0.00 | 0.00 | 43 | 1024.5 |
| 20260502102524 | 13 | 41 | 1.6 | 1.6 | 0.00 | 0.00 | 0.00 | 46 | 1024.5 |
| 20260502101545 | 13 | 79 | 1.6 | 3.2 | 0.00 | 0.00 | 0.00 | 47 | 1024.7 |
| 20260502100549 | 13 | 95 | 1.6 | 3.2 | 0.00 | 0.00 | 0.00 | 46 | 1024.7 |
| 20260502091525 | 13 | 0.0 | 0.0 | 0.00 | 0.00 | 0.00 | 45 | 1024.9 | |
| 20260502090525 | 13 | 0.0 | 0.0 | 0.00 | 0.00 | 0.00 | 50 | 1025.0 | |
| 20260502071526 | 10 | 0.0 | 0.0 | 0.00 | 0.00 | 0.00 | 69 | 1025.2 | |
| 20260502070525 | 10 | 45 | 0.0 | 1.6 | 0.00 | 0.00 | 0.00 | 70 | 1025.2 |
| 20260502065545 | 10 | 0.0 | 0.0 | 0.00 | 0.00 | 0.00 | 69 | 1025.2 | |
| 20260502064545 | 10 | 0.0 | 0.0 | 0.00 | 0.00 | 0.00 | 69 | 1025.1 | |
| 20260502063524 | 9 | 0.0 | 0.0 | 0.00 | 0.00 | 0.00 | 71 | 1025.0 | |
| 20260502062525 | 9 | 0.0 | 0.0 | 0.00 | 0.00 | 0.00 | 71 | 1025.0 | |
| 20260502061525 | 9 | 0.0 | 0.0 | 0.00 | 0.00 | 0.00 | 72 | 1024.9 | |
| 20260502060525 | 8 | 0.0 | 0.0 | 0.00 | 0.00 | 0.00 | 74 | 1024.9 | |
| 20260502055525 | 8 | 0.0 | 0.0 | 0.00 | 0.00 | 0.00 | 75 | 1024.8 | |
| 20260502054525 | 8 | 323 | 0.0 | 1.6 | 0.00 | 0.00 | 0.00 | 76 | 1024.8 |
| 20260502053525 | 8 | 341 | 0.0 | 1.6 | 0.00 | 0.00 | 0.00 | 76 | 1024.8 |
| 20260502052525 | 8 | 0.0 | 0.0 | 0.00 | 0.00 | 0.00 | 76 | 1024.7 | |
| 20260502051525 | 8 | 338 | 0.0 | 3.2 | 0.00 | 0.00 | 0.00 | 76 | 1024.6 |
| 20260502050524 | 8 | 0.0 | 0.0 | 0.00 | 0.00 | 0.00 | 76 | 1024.6 | |
| 20260502045525 | 8 | 0.0 | 0.0 | 0.00 | 0.00 | 0.00 | 75 | 1024.6 | |
| 20260502044525 | 7 | 340 | 0.0 | 3.2 | 0.00 | 0.00 | 0.00 | 76 | 1024.4 |
| 20260502043525 | 7 | 356 | 0.0 | 1.6 | 0.00 | 0.00 | 0.00 | 76 | 1024.4 |
| 20260502042525 | 7 | 0.0 | 0.0 | 0.00 | 0.00 | 0.00 | 77 | 1024.4 | |
| 20260502041525 | 7 | 0.0 | 0.0 | 0.00 | 0.00 | 0.00 | 77 | 1024.4 | |
| 20260502040524 | 7 | 0.0 | 0.0 | 0.00 | 0.00 | 0.00 | 78 | 1024.5 | |
| 20260502035525 | 7 | 0.0 | 0.0 | 0.00 | 0.00 | 0.00 | 78 | 1024.4 | |
| 20260502034517 | 7 | 358 | 0.0 | 3.2 | 0.00 | 0.00 | 0.00 | 78 | 1024.3 |
| 20260502033524 | 7 | 0.0 | 0.0 | 0.00 | 0.00 | 0.00 | 77 | 1024.4 | |
| 20260502032526 | 7 | 0.0 | 0.0 | 0.00 | 0.00 | 0.00 | 77 | 1024.2 | |
| 20260502031535 | 7 | 340 | 0.0 | 1.6 | 0.00 | 0.00 | 0.00 | 75 | 1024.2 |
| 20260502030528 | 7 | 0.0 | 0.0 | 0.00 | 0.00 | 0.00 | 75 | 1024.1 | |
| 20260502025527 | 7 | 0.0 | 0.0 | 0.00 | 0.00 | 0.00 | 75 | 1024.1 | |
| 20260502024526 | 7 | 0.0 | 0.0 | 0.00 | 0.00 | 0.00 | 74 | 1024.0 | |
| 20260502023525 | 7 | 0.0 | 0.0 | 0.00 | 0.00 | 0.00 | 73 | 1024.0 | |
| 20260502022526 | 7 | 0.0 | 0.0 | 0.00 | 0.00 | 0.00 | 73 | 1024.0 |